Location: Bazugues
(43.4465°N, 0.3432°E)
Time: 18:29:37
(UTC+00:00)

UNISAT 6 - Visible Passes

Search period start: 17 May 2026 00:00
Search period end: 27 May 2026 00:00
Orbit: 572 x 636 km, 97.8° (Epoch: 17 May)

Date Brightness Start Highest point End Pass type
(mag) Time Alt. Az. Time Alt. Az. Time Alt. Az.
17 May ? 01:49:53 10° E 01:52:15 15° ENE 01:54:36 10° NNE visible
17 May ? 03:23:15 10° S 03:27:34 60° W 03:31:51 10° NNW visible
18 May ? 02:01:24 10° ESE 02:04:27 19° ENE 02:07:28 10° NNE visible
18 May ? 03:35:46 10° S 03:39:56 44° W 03:44:04 10° NNW visible
19 May ? 02:13:09 10° ESE 02:16:39 24° ENE 02:20:08 10° NNE visible
19 May ? 03:48:23 10° SSW 03:52:18 32° W 03:56:12 10° NNW visible
20 May ? 02:25:02 10° SE 02:28:53 32° ENE 02:32:42 10° N visible
21 May ? 02:37:02 10° SE 02:41:08 42° ENE 02:45:11 10° N visible
22 May ? 02:49:09 10° SSE 02:53:24 58° ENE 02:57:36 10° N visible
23 May ? 03:01:22 10° SSE 03:05:40 79° ENE 03:09:57 10° N visible
24 May ? 01:41:21 10° E 01:42:46 11° ENE 01:44:11 10° NE visible
24 May ? 03:13:40 10° S 03:17:58 76° WSW 03:22:14 10° NNW visible
25 May ? 01:52:29 10° E 01:54:55 15° ENE 01:57:21 10° NNE visible
25 May ? 03:26:04 10° S 03:30:17 55° W 03:34:28 10° NNW visible
26 May ? 02:04:01 10° ESE 02:07:05 20° ENE 02:10:08 10° NNE visible
26 May ? 03:38:34 10° SSW 03:42:37 40° W 03:46:38 10° NNW visible
